Weather History for Manchester, NH

Change the Weather History Date:

Friday, November 16, 2012

  Actual Average Record
Temperature  
Mean Temperature 37 °F -  
Max Temperature 44 °F 48 °F 73 °F (1993)
Min Temperature 30 °F 27 °F 8 °F (1996)
Degree Days  
Heating Degree Days 28    
Moisture  
Dew Point 25 °F    
Average Humidity 66    
Maximum Humidity 85    
Minimum Humidity 43    
Precipitation  
Precipitation 0.00 in - - ()
Sea Level Pressure  
Sea Level Pressure 30.38 in    
Wind  
Wind Speed 2 mph (NNW)    
Max Wind Speed 6 mph    
Max Gust Speed -    
Visibility 10 miles    
Events      
Averages and records for this station are not official NWS values.
T = Trace of Precipitation, MM = Missing Value Source: NWS Daily Summary

Daily Weather History Graph

Daily Weather History Graph

Search for Another Location

Airport:

Trip Planner

Search our weather history database for the weather conditions in past years. The results will help you decide how hot, cold, wet, or windy it might be!

Date:

Astronomy

Nov. 16, 2012 Rise Set
Actual Time 6:39 AM EST 4:20 PM EST
Civil Twilight 6:09 AM EST 4:51 PM EST
Nautical Twilight 5:34 AM EST 5:26 PM EST
Astronomical Twilight 5:01 AM EST 5:59 PM EST
Moon 9:32 AM EST (11/16) 7:16 PM EST (11/16)
Length of Visible Light 10h 42m
Length of Day
9h 41m
Waxing Crescent, 11% of the Moon is Illuminated
Nov 16
Waxing Crescent
Nov 20
First Quarter
Nov 28
Full
Dec 6
Last Quarter
Dec 13
New

Hourly Weather History & Observations

Time (EST) Temp. Windchill Dew Point Humidity Pressure Visibility Wind Dir Wind Speed Gust Speed Precip Events Conditions
12:53 AM 32.0 °F - 27.0 °F 82% 30.34 in 10.0 mi Calm Calm - N/A   Clear
1:53 AM 32.0 °F 28.7 °F 27.0 °F 82% 30.34 in 10.0 mi NNW 3.5 mph - N/A   Clear
2:53 AM 30.9 °F 27.5 °F 26.1 °F 82% 30.34 in 10.0 mi NNW 3.5 mph - N/A   Clear
3:53 AM 30.9 °F - 26.1 °F 82% 30.35 in 10.0 mi Calm Calm - N/A   Clear
4:53 AM 30.0 °F 25.2 °F 26.1 °F 85% 30.34 in 10.0 mi NNW 4.6 mph - N/A   Clear
5:53 AM 30.9 °F - 25.0 °F 79% 30.34 in 10.0 mi Calm Calm - N/A   Clear
6:53 AM 30.0 °F - 25.0 °F 82% 30.35 in 10.0 mi Calm Calm - N/A   Clear
7:53 AM 30.9 °F - 25.0 °F 79% 30.37 in 10.0 mi Calm Calm - N/A   Clear
8:53 AM 32.0 °F - 26.1 °F 79% 30.38 in 10.0 mi Calm Calm - N/A   Clear
9:53 AM 36.0 °F 32.1 °F 26.1 °F 67% 30.38 in 10.0 mi North 4.6 mph - N/A   Clear
10:53 AM 39.0 °F - 25.0 °F 57% 30.37 in 10.0 mi Calm Calm - N/A   Clear
11:53 AM 41.0 °F 38.0 °F 26.1 °F 55% 30.37 in 10.0 mi North 4.6 mph - N/A   Clear
12:53 PM 41.0 °F 39.0 °F 26.1 °F 55% 30.35 in 10.0 mi Variable 3.5 mph - N/A   Clear
1:53 PM 43.0 °F - 26.1 °F 51% 30.34 in 10.0 mi Calm Calm - N/A   Clear
2:53 PM 44.1 °F 42.5 °F 25.0 °F 47% 30.34 in 10.0 mi NW 3.5 mph - N/A   Clear
3:53 PM 43.0 °F 41.3 °F 21.9 °F 43% 30.36 in 10.0 mi NW 3.5 mph - N/A   Clear
4:53 PM 39.9 °F - 26.1 °F 58% 30.38 in 10.0 mi Calm Calm - N/A   Clear
5:53 PM 41.0 °F - 24.1 °F 51% 30.38 in 10.0 mi Calm Calm - N/A   Clear
6:53 PM 39.0 °F 36.8 °F 23.0 °F 53% 30.39 in 10.0 mi WNW 3.5 mph - N/A   Clear
7:53 PM 37.9 °F 33.5 °F 24.1 °F 57% 30.40 in 10.0 mi NW 5.8 mph - N/A   Clear
8:53 PM 36.0 °F 31.1 °F 24.1 °F 62% 30.43 in 10.0 mi North 5.8 mph - N/A   Clear
9:53 PM 36.0 °F 32.1 °F 24.1 °F 62% 30.45 in 10.0 mi North 4.6 mph - N/A   Clear
10:53 PM 34.0 °F - 24.1 °F 67% 30.46 in 10.0 mi Calm Calm - N/A   Clear
11:53 PM 33.1 °F 27.7 °F 24.1 °F 70% 30.48 in 10.0 mi North 5.8 mph - N/A   Clear